Weather in Kobrinskoye

Russia / Saint-Petersburg and Leningrad Oblast     59°25′34″N   30°07′18″E
temp.,
°C
wind,
m/s
gust,
m/s
humid.,
%
clouds,
%
prec.,
mm/h
press.,
hPa
HPBL,
m
19 september, sun
sun1900:00+4ene3982100 0.0 1027368
03:00+2ene3987100 0.0 1027298
06:00+2ene31088100 0.0 1027312
09:00+4ene41174100 0.0 1027482
12:00+8e5855100 0.0 1026972
15:00+9e5848100 0.0 10261204
18:00+8ene495797 0.0 10261062
21:00+5ene41272100 0.0 1026560
20 september, mon
mon2000:00+5ene51275100 0.0 1026655
03:00+4ene41277100 0.0 1026566
06:00+3ene51280100 0.0 1026544
09:00+4ene51272100 0.0 1027617
12:00+7ene61057100 0.0 1026885
15:00+8ene6950100 0.0 10251115
18:00+7ene51058100 0.0 10251023
21:00+5ene41166100 0.0 1025762
21 september, tue
tue2100:00+4ene41074100 0.0 1025534
03:00+2ne3979100 0.0 1024354
06:00+2ne398477 0.0 1023307
09:00+4ne3774100 0.0 1022383
12:00+7ne4655100 0.0 1021793
15:00+9ene465391 0.0 10201235
18:00+6ene3778100 0.0 1021851
21:00+5ne3788100 0.1 1021794
22 september, wed
wed2200:00+5ne3592100 0.1 1021735
03:00+5ne2689100 0.1 1021544
06:00+5nne2692100 0.0 1022499
09:00+6ne3788100 0.0 1021480
12:00+8ne3572100 0.0 1021647
15:00+10nne456968 0.0 1020801
18:00+9ne357383 0.0 1020634
21:00+7nne2578100 0.0 1019204
23 september, thu
thu2300:00+7ne1379100 0.0 1017103
03:00+7e1181100 0.0 101527
06:00+5se1284100 0.0 101450
09:00+6se2485100 0.0 1012286
12:00+6sse3789100 0.0 1011579
15:00+8sse4782100 0.1 1009937
18:00+6sse4889100 0.1 1008779
21:00+6sse51088100 0.1 1006915